Temperature
16 16 16 16 16 16 16 16 16 16 16 16 16 16 15 15 15 15 15 15 15 15 15 15 15 15 15 15 15 15 15 15 15 15 15 15 15 15 15 15 15 15 15
16 16 16 16 16 16 16 16 15 15 15 15 15 15 15 15 15 15 15 15 15 15 15 15 15 15 15 15 15 15 15 15 15 15 14 14 14 14 14 14 14 14 14
16 16 16 16 16 16 15 15 15 15 15 15 15 15 15 15 15 15 15 15 15 15 15 15 15 15 15 14 14 14 14 14 14 14 14 14 14 14 14 14 14 14 14
16 16 16 16 15 15 15 15 15 15 15 15 15 15 15 15 15 15 15 15 15 15 15 14 14 14 14 14 14 14 14 14 14 14 14 14 14 14 14 14 14 14 14
16 16 16 15 15 15 15 15 15 15 15 15 15 15 14 15 15 14 14 14 14 14 14 14 14 14 14 14 14 13 13 13 13 13 13 13 13 13 13 13 14 14 14
16 16 15 15 15 15 15 15 15 15 15 15 14 14 14 14 14 14 14 14 14 14 14 14 14 14 14 13 13 13 13 13 13 13 13 13 13 13 13 13 13 13 13
16 16 15 15 15 15 15 15 15 14 14 14 14 14 14 14 14 14 14 14 14 14 14 14 14 14 14 13 13 13 13 13 13 13 13 13 13 13 13 12 13 13 13
16 16 15 15 15 15 15 15 15 14 14 14 14 14 14 13 13 13 13 14 14 14 14 14 14 13 13 13 13 13 13 13 12 12 12 12 12 12 12 12 12 12 12
16 15 15 15 15 15 15 15 14 14 14 14 14 14 14 13 13 13 13 13 13 13 13 13 13 13 13 13 13 13 13 12 12 12 12 12 12 12 12 12 12 12 12
16 15 15 15 15 15 15 15 14 14 14 14 14 14 14 14 13 13 13 13 13 13 13 13 13 13 13 13 12 12 12 12 12 12 12 12 11 12 11 11 11 11 12
15 15 15 15 15 15 15 15 14 14 14 14 14 14 14 14 14 13 13 13 13 13 13 12 12 12 12 12 12 12 12 12 12 11 11 11 11 11 11 11 11 11 11
15 15 15 15 15 15 14 14 14 14 14 14 14 14 14 14 13 13 13 12 12 12 12 12 12 12 12 12 12 12 11 11 11 11 11 11 11 11 11 11 11 11 11
15 15 15 15 15 14 14 14 14 14 14 14 14 14 13 13 13 13 13 13 12 12 12 12 12 12 12 12 11 11 11 11 11 11 11 11 11 11 11 10 10 10 10
15 15 15 15 14 14 14 14 14 14 13 13 13 13 13 13 13 13 13 13 12 12 12 12 11 11 11 11 11 11 11 11 11 11 11 11 10 10 10 10 10 10 10
15 15 15 14 14 14 14 14 14 13 13 13 13 13 13 13 13 13 13 12 12 12 11 11 11 11 11 11 11 11 11 11 10 10 10 10 10 10 10 10 10 10 10
15 15 14 14 14 14 14 13 13 13 13 13 13 13 13 13 12 12 12 12 12 12 12 11 11 11 11 11 11 11 10 10 10 10 10 10 10 10 10 10 10 10 10
14 14 14 14 14 14 13 13 13 13 13 13 13 13 13 12 12 12 12 12 12 12 12 11 11 11 11 10 10 10 10 10 10 10 10 10 9 9 9 9 9 9 9
14 14 14 14 14 13 13 13 13 13 13 13 13 13 12 12 12 12 12 12 12 11 11 11 11 11 10 10 10 10 10 10 10 10 9 9 9 9 9 9 9 9 9
14 14 14 14 13 13 13 13 13 13 13 13 13 12 12 12 12 12 12 12 11 11 11 11 11 11 10 10 10 10 10 10 9 9 9 9 9 9 9 9 9 9 9
13 13 13 13 13 13 13 13 13 13 12 12 12 12 12 12 12 12 12 11 11 11 11 11 10 10 10 10 10 10 10 9 9 9 9 9 9 9 9 9 9 9 9
13 13 13 13 13 13 13 12 12 12 12 12 12 12 12 12 11 11 11 11 11 11 11 10 10 10 10 10 10 9 9 9 9 9 9 9 9 9 9 8 8 8 8
13 13 13 13 13 13 12 12 12 12 12 12 12 12 12 11 11 11 11 11 11 11 10 10 10 10 10 10 9 9 9 9 9 9 9 9 8 8 8 8 8 8 8
13 13 13 12 12 12 12 12 12 12 12 12 11 11 11 11 11 11 11 11 10 10 10 10 10 10 10 9 9 9 9 9 9 8 8 8 8 8 8 8 8 8 8
12 12 12 12 12 12 12 11 11 11 11 11 11 11 11 11 11 11 10 10 10 10 10 10 10 10 9 9 9 9 8 8 8 8 8 8 8 8 8 8 8 8 7
12 12 12 12 12 12 11 11 11 11 11 11 11 11 11 11 11 10 10 10 10 10 10 9 9 9 9 9 9 8 8 8 8 8 8 7 8 7 7 8 7 7 7
12 12 12 11 11 11 11 11 11 10 10 10 10 11 10 10 10 10 10 10 10 10 9 9 9 9 9 9 8 8 8 8 8 8 8 7 7 7 7 7 7 7 7
Wind_Speed
3 3 3 4 5 6 5 4 5 5 5 6 7 7 7 7 8 8 8 11 11 11 12 12 11 12 12 12 11 11 11 11 11 12 11 11 11 10 10 9 8 8 8
5 3 3 4 4 6 6 5 5 4 4 5 5 6 7 7 7 8 8 9 11 11 12 11 11 11 11 11 11 11 11 11 11 11 11 11 10 10 10 10 10 10 9
7 5 4 3 4 7 7 6 6 5 5 5 5 5 6 6 6 7 7 8 8 10 11 11 11 10 10 10 10 10 11 11 10 10 11 11 11 10 10 10 10 10 9
8 7 4 3 5 7 6 4 4 4 4 4 4 4 4 5 6 6 6 7 7 7 9 11 11 11 10 10 10 10 10 10 10 10 10 9 10 10 10 9 9 10 10
9 8 5 5 7 5 3 4 4 3 4 3 3 4 4 3 4 6 5 5 6 7 7 8 9 10 10 9 9 9 10 10 9 9 9 9 9 9 9 8 8 9 8
8 8 5 5 6 4 4 3 4 3 3 3 4 4 4 3 4 4 3 5 6 6 7 8 8 9 9 9 9 9 9 9 9 9 9 8 8 8 8 7 7 7 7
7 7 4 4 4 4 4 4 3 4 3 3 4 4 4 5 5 4 4 4 5 6 8 8 8 8 8 9 9 9 9 8 8 8 9 8 8 8 7 7 7 7 6
6 7 5 4 3 4 4 4 3 3 2 2 3 3 3 4 4 4 3 3 3 4 6 7 8 8 8 8 9 10 9 9 8 7 7 7 7 7 7 6 6 5 5
6 7 6 5 4 4 4 3 3 4 2 0 2 3 3 1 1 3 3 3 3 3 3 5 6 7 7 8 8 9 9 8 8 7 6 6 6 6 6 6 5 5 5
5 7 7 6 4 3 3 3 3 2 3 1 0 1 2 4 3 0 2 3 2 2 2 3 5 5 6 7 7 8 8 8 7 7 6 6 5 5 5 5 5 5 5
3 6 6 5 4 3 3 3 3 3 2 3 2 1 1 2 2 3 0 2 3 2 1 2 3 4 5 5 5 5 6 7 6 6 6 6 6 5 5 5 5 5 5
1 3 5 4 4 3 3 3 3 3 2 3 2 2 2 2 2 2 2 1 1 2 2 1 2 3 3 4 4 4 4 5 4 4 5 5 5 4 4 4 4 4 4
1 3 3 3 3 4 4 3 3 3 3 3 2 2 2 2 2 3 3 2 1 1 1 1 0 2 2 3 3 3 3 3 2 2 2 2 3 3 3 3 3 4 4
3 4 4 3 4 4 4 3 3 2 3 3 3 2 2 1 2 3 3 4 2 1 1 2 1 1 2 3 3 3 3 2 2 1 1 0 0 1 2 3 3 4 4
3 4 4 3 3 3 4 4 3 2 3 3 3 3 2 1 2 2 3 4 4 2 2 3 2 2 2 3 4 4 3 3 3 3 3 3 3 3 3 3 4 4 4
3 4 4 3 3 3 3 3 3 2 3 2 2 3 2 1 2 2 2 2 3 4 3 3 3 2 3 2 3 5 5 5 4 5 5 5 5 5 5 5 5 5 4
4 5 5 5 4 4 3 3 3 3 3 2 2 3 3 2 2 2 2 2 2 3 3 2 1 1 1 1 1 3 5 4 5 5 6 6 6 6 6 6 6 6 5
3 5 5 5 5 4 4 4 4 4 4 4 4 3 3 2 2 2 2 2 2 2 3 2 1 1 1 2 2 2 3 3 5 6 6 7 7 8 8 8 7 7 7
3 3 4 5 5 5 5 4 4 4 4 5 5 5 4 4 3 2 3 3 2 2 2 3 2 1 1 1 1 2 2 2 3 4 5 6 7 8 8 8 8 8 7
4 4 4 4 4 4 5 4 4 4 4 4 4 5 5 5 5 5 4 4 3 2 2 2 1 1 1 1 0 1 2 2 3 3 4 5 6 7 8 7 7 7 7
4 3 3 3 3 3 4 4 4 4 4 3 3 3 4 6 6 6 4 4 4 3 2 2 2 1 1 1 2 2 2 2 3 2 2 3 4 4 6 7 7 6 6
2 3 3 4 4 3 4 6 5 4 4 4 3 3 3 4 5 6 6 7 7 5 5 4 3 4 4 3 2 2 2 0 3 2 1 3 2 3 5 6 7 6 6
3 3 4 4 4 5 5 6 6 4 4 4 4 4 2 3 3 3 4 4 5 6 7 6 6 6 5 5 4 3 3 3 4 3 1 3 2 3 5 6 7 6 6
3 4 4 4 4 4 6 6 6 4 4 4 5 5 5 4 4 4 4 3 4 5 7 6 6 6 6 6 6 6 5 3 2 2 2 2 2 2 3 5 5 6 6
3 4 3 4 4 5 6 6 5 3 3 4 4 5 5 5 7 6 5 4 4 4 6 8 8 8 8 7 6 3 2 2 2 2 2 2 2 2 2 2 5 5 5
3 3 3 3 4 5 6 6 6 4 4 4 3 4 6 6 7 7 6 6 6 6 4 3 4 4 5 6 7 6 5 4 2 3 2 2 1 0 2 2 2 3 4
Wind_Direction
129 119 111 100 92 92 90 85 81 79 80 81 83 85 82 79 77 72 70 76 78 77 78 78 79 79 82 89 93 93 89 87 86 86 84 84 84 84 79 75 77 79 77
129 115 106 97 94 97 95 91 88 85 81 82 77 83 85 85 84 77 73 73 74 74 75 77 77 80 85 89 91 90 89 88 87 86 83 82 83 84 81 77 74 72 71
126 116 105 98 102 103 98 90 81 80 78 73 64 68 78 83 86 83 79 74 68 66 68 71 73 77 84 90 91 89 88 89 85 84 82 80 78 81 80 77 73 69 68
124 119 112 101 104 101 98 89 75 74 68 69 67 58 64 76 83 87 84 77 72 68 66 68 70 73 82 89 88 88 88 88 83 83 81 80 77 76 75 74 74 71 68
120 121 117 115 111 101 93 94 81 89 87 79 77 64 50 55 66 80 81 82 80 76 71 69 66 68 76 84 87 86 86 87 85 85 82 80 77 74 73 71 70 71 67
122 121 120 119 115 101 85 88 93 78 88 89 84 65 47 48 54 67 76 84 86 83 79 72 65 60 67 75 82 86 85 83 82 82 81 79 77 75 75 73 70 70 67
124 124 121 118 113 111 113 107 104 86 72 84 79 54 33 38 49 47 57 71 70 76 81 78 74 68 64 69 73 81 80 79 80 80 78 75 74 74 72 70 66 66 65
133 131 127 129 122 116 108 105 109 108 99 82 99 87 38 12 16 31 40 60 55 72 75 77 79 78 73 73 73 76 77 76 77 78 77 74 71 70 66 64 62 61 62
135 132 135 135 132 131 135 134 132 132 150 281 92 124 126 191 312 352 21 42 46 57 71 84 86 87 84 78 74 74 76 76 75 76 74 72 69 64 60 58 56 53 56
134 140 141 141 144 143 146 155 145 139 143 163 21 87 139 152 147 352 344 2 25 51 55 86 87 88 90 87 83 81 79 76 74 72 68 67 64 58 52 48 43 40 42
140 148 147 148 153 156 162 155 140 139 142 147 151 132 102 89 107 135 189 331 355 350 22 95 101 98 101 100 94 91 87 82 76 71 67 62 57 53 45 41 37 37 37
163 160 153 151 158 162 170 168 157 148 146 138 133 130 140 141 157 140 157 202 295 317 348 38 107 120 121 115 106 102 107 96 87 76 67 58 51 45 40 34 29 26 24
182 190 167 169 172 175 169 159 155 157 155 146 146 144 147 161 156 147 142 159 183 292 341 336 266 143 137 138 137 126 132 127 116 101 85 65 48 35 25 17 13 9 8
193 189 173 170 175 173 167 153 151 167 159 154 152 149 139 154 144 150 154 147 122 339 314 272 297 209 182 169 177 162 160 173 174 191 200 207 350 353 355 355 351 347 347
187 174 162 162 159 160 161 153 151 168 158 163 162 154 148 161 146 153 150 154 151 168 238 246 250 255 214 189 195 193 206 220 226 230 234 240 255 277 297 313 320 322 321
182 168 168 165 159 158 156 155 158 165 143 158 165 152 154 166 155 144 150 152 150 159 200 231 230 237 208 207 216 214 225 237 240 245 244 248 257 265 275 286 293 297 295
184 184 184 178 174 174 175 169 176 165 159 168 168 162 175 170 155 155 150 146 144 146 174 245 244 239 190 216 229 228 233 240 252 252 251 251 257 264 269 277 281 280 282
198 193 185 187 191 193 193 189 195 187 178 182 185 172 188 176 165 169 162 168 171 160 156 190 237 241 238 229 217 224 240 251 255 257 261 259 260 263 268 273 274 274 271
205 195 179 188 199 202 203 204 200 199 196 197 192 187 194 176 193 199 184 187 190 166 146 164 206 225 258 257 302 282 266 279 276 269 273 272 270 271 272 272 273 274 265
198 196 193 196 203 205 201 200 193 193 190 196 202 201 199 194 200 200 197 196 187 169 164 164 191 222 242 268 163 259 298 291 280 275 279 280 281 283 278 273 275 274 259
202 200 198 207 208 203 204 194 188 186 186 194 209 214 212 211 212 203 196 190 179 175 178 184 202 209 229 223 225 221 246 278 282 262 294 282 277 279 281 278 273 273 265
209 200 201 203 208 221 217 199 184 185 189 190 201 222 227 215 217 212 206 194 183 183 193 194 207 216 229 222 213 216 204 229 282 272 232 281 255 272 268 268 272 272 269
205 213 216 208 219 228 214 201 191 183 194 197 200 206 219 214 199 198 209 207 212 213 199 193 202 216 214 210 196 210 213 211 232 239 176 265 282 279 274 274 276 271 268
212 216 224 220 225 241 223 209 200 190 196 204 207 206 203 214 214 197 195 211 232 234 223 211 207 214 215 206 198 203 211 221 259 253 169 233 271 274 290 281 277 268 268
222 225 223 220 224 242 230 216 196 191 210 220 221 214 206 214 224 207 191 209 237 261 252 234 231 232 230 220 202 163 169 181 253 257 202 194 253 283 299 285 280 289 278
228 225 226 223 226 235 237 223 200 190 210 226 239 241 230 224 225 211 201 205 227 241 237 240 240 247 237 223 210 194 191 197 213 244 224 180 216 246 304 293 289 302 293
Height
1547 1547 1547 1548 1548 1548 1548 1548 1548 1547 1547 1547 1547 1546 1546 1546 1545 1544 1544 1543 1542 1542 1541 1539 1538 1537 1536 1535 1536 1537 1538 1538 1538 1538 1539 1539 1539 1539 1539 1539 1539 1540 1540
1548 1548 1548 1548 1548 1549 1549 1549 1548 1548 1548 1548 1548 1548 1547 1547 1547 1546 1546 1545 1544 1544 1543 1542 1541 1540 1539 1539 1539 1539 1539 1539 1539 1539 1539 1540 1540 1540 1540 1540 1540 1540 1540
1548 1548 1548 1549 1549 1549 1550 1549 1550 1549 1549 1549 1549 1549 1549 1548 1548 1548 1547 1547 1546 1546 1545 1544 1543 1542 1542 1541 1541 1541 1541 1541 1541 1540 1540 1540 1540 1540 1540 1540 1540 1540 1540
1549 1549 1549 1549 1550 1550 1550 1550 1550 1550 1550 1550 1550 1550 1550 1549 1549 1549 1549 1548 1548 1547 1547 1546 1545 1544 1543 1543 1543 1542 1542 1542 1542 1541 1541 1541 1541 1541 1541 1541 1541 1541 1541
1549 1550 1550 1550 1550 1551 1551 1551 1551 1551 1550 1550 1550 1550 1550 1550 1550 1550 1549 1549 1549 1549 1548 1548 1547 1546 1545 1545 1544 1544 1543 1543 1543 1542 1542 1542 1542 1542 1542 1541 1541 1541 1541
1550 1550 1550 1550 1550 1551 1551 1551 1551 1551 1551 1550 1550 1551 1551 1551 1551 1551 1550 1550 1550 1550 1549 1549 1548 1548 1547 1546 1546 1545 1545 1544 1544 1543 1543 1543 1543 1542 1542 1542 1541 1541 1541
1550 1550 1550 1550 1550 1551 1551 1551 1551 1551 1551 1551 1551 1551 1551 1551 1551 1551 1551 1551 1551 1550 1550 1550 1549 1549 1548 1548 1547 1547 1546 1545 1545 1544 1544 1543 1543 1543 1542 1542 1542 1541 1541
1550 1550 1550 1550 1550 1550 1550 1551 1551 1550 1551 1551 1551 1550 1551 1553 1552 1552 1552 1551 1551 1551 1550 1550 1550 1549 1549 1548 1548 1547 1547 1546 1545 1545 1544 1544 1543 1543 1542 1542 1542 1541 1541
1550 1550 1550 1550 1550 1550 1550 1550 1550 1550 1550 1551 1551 1551 1551 1551 1552 1553 1552 1552 1552 1551 1551 1550 1550 1550 1549 1549 1548 1547 1547 1546 1546 1545 1544 1544 1543 1543 1542 1542 1541 1541 1540
1549 1549 1549 1550 1550 1550 1550 1550 1550 1550 1550 1550 1550 1551 1551 1551 1551 1552 1553 1552 1552 1551 1551 1551 1550 1550 1549 1549 1548 1547 1547 1546 1546 1545 1544 1544 1543 1542 1542 1541 1541 1540 1540
1548 1548 1549 1549 1549 1549 1549 1549 1549 1549 1549 1549 1549 1549 1550 1550 1550 1550 1551 1551 1551 1551 1551 1550 1550 1549 1549 1548 1548 1547 1546 1546 1545 1545 1544 1543 1542 1542 1541 1540 1540 1539 1539
1547 1547 1548 1548 1548 1548 1548 1548 1548 1548 1548 1549 1549 1549 1549 1549 1549 1549 1549 1550 1550 1550 1550 1550 1549 1549 1548 1548 1547 1546 1546 1545 1545 1544 1543 1542 1541 1541 1540 1539 1539 1538 1537
1546 1546 1546 1546 1547 1547 1547 1547 1547 1547 1547 1547 1548 1548 1548 1548 1548 1548 1548 1548 1549 1549 1549 1549 1549 1548 1548 1547 1546 1546 1545 1544 1543 1543 1542 1541 1540 1539 1539 1538 1537 1537 1536
1544 1545 1545 1545 1545 1545 1546 1546 1546 1546 1546 1546 1546 1547 1547 1547 1547 1547 1547 1547 1547 1548 1548 1548 1547 1547 1547 1546 1546 1545 1544 1543 1542 1541 1541 1540 1539 1538 1537 1536 1535 1534 1534
1543 1543 1543 1543 1544 1544 1544 1544 1544 1544 1545 1545 1545 1545 1545 1545 1545 1546 1546 1546 1547 1545 1545 1545 1545 1545 1545 1545 1544 1544 1543 1542 1541 1540 1539 1538 1537 1536 1535 1534 1533 1532 1531
1541 1541 1541 1541 1542 1542 1542 1542 1543 1543 1543 1543 1543 1544 1544 1544 1544 1544 1544 1544 1545 1545 1544 1544 1544 1544 1544 1543 1543 1542 1541 1540 1539 1538 1538 1537 1536 1534 1533 1532 1531 1529 1528
1539 1539 1539 1539 1540 1540 1540 1541 1541 1541 1541 1541 1542 1542 1542 1542 1542 1542 1542 1542 1542 1542 1542 1542 1542 1542 1542 1541 1541 1540 1539 1538 1537 1537 1536 1535 1534 1533 1531 1529 1528 1526 1525
1536 1536 1537 1537 1537 1538 1538 1538 1539 1539 1539 1539 1539 1540 1540 1540 1540 1540 1540 1540 1540 1540 1540 1539 1539 1539 1539 1539 1538 1538 1537 1537 1536 1535 1534 1533 1532 1530 1528 1527 1525 1523 1521
1533 1534 1534 1534 1535 1535 1536 1536 1536 1536 1537 1537 1537 1537 1537 1537 1537 1538 1538 1538 1538 1537 1537 1537 1537 1537 1537 1537 1536 1535 1535 1534 1533 1532 1531 1530 1529 1528 1526 1524 1522 1519 1517
1530 1531 1531 1532 1532 1533 1533 1533 1534 1534 1534 1534 1535 1535 1535 1535 1535 1535 1535 1535 1535 1535 1535 1534 1534 1534 1534 1534 1533 1532 1532 1531 1531 1530 1529 1528 1526 1525 1523 1522 1519 1517 1514
1527 1528 1528 1528 1529 1529 1530 1530 1530 1531 1531 1531 1532 1532 1532 1532 1532 1532 1532 1532 1532 1532 1531 1531 1531 1531 1530 1530 1530 1529 1529 1528 1528 1527 1526 1525 1524 1522 1521 1519 1518 1516 1514
1524 1525 1525 1525 1525 1526 1526 1527 1527 1527 1528 1528 1528 1528 1529 1529 1529 1529 1529 1529 1529 1529 1528 1528 1528 1527 1527 1527 1527 1526 1526 1525 1524 1524 1523 1522 1521 1520 1519 1517 1516 1515 1513
1520 1521 1521 1521 1522 1522 1523 1523 1524 1524 1524 1524 1524 1525 1525 1525 1525 1525 1525 1525 1525 1525 1525 1525 1524 1524 1524 1524 1523 1523 1523 1522 1521 1521 1520 1518 1518 1517 1516 1515 1514 1513 1512
1517 1517 1517 1518 1518 1519 1519 1519 1520 1520 1520 1520 1521 1521 1521 1521 1521 1522 1521 1521 1521 1521 1521 1521 1521 1521 1521 1521 1520 1520 1519 1519 1518 1518 1517 1516 1515 1514 1513 1512 1511 1510 1510
1513 1513 1514 1514 1514 1514 1515 1515 1516 1516 1516 1516 1517 1517 1517 1517 1517 1518 1517 1517 1517 1517 1517 1517 1517 1517 1517 1517 1516 1516 1515 1515 1514 1514 1514 1513 1511 1510 1510 1509 1509 1508 1507
1509 1509 1509 1509 1510 1510 1511 1511 1512 1512 1512 1512 1512 1513 1513 1513 1513 1513 1513 1513 1512 1512 1512 1512 1512 1512 1512 1512 1512 1512 1511 1510 1510 1509 1509 1509 1508 1508 1506 1505 1505 1505 1504